Location: Weatherford
(35.5260°N, 98.7070°W)
Time: 03:32:12
(UTC-05:00)

OPAL - Visible Passes

Search period start: 28 September 2016 00:00
Search period end: 08 October 2016 00:00
Orbit: 744 x 795 km, 100.2° (Epoch: 27 September)

Date Brightness Start Highest point End Pass type
(mag) Time Alt. Az. Time Alt. Az. Time Alt. Az.
28 Sep 10.0 04:09:09 10° NNE 04:10:09 16° NNE 04:10:09 16° NNE visible
29 Sep 9.6 05:13:17 10° N 05:14:25 15° NNW 05:14:25 15° NNW visible
30 Sep 9.8 04:37:14 10° N 04:38:24 17° N 04:38:24 17° N visible
01 Oct 10.2 04:01:46 10° NNE 04:02:24 13° NNE 04:02:24 13° NNE visible
01 Oct 9.8 05:42:24 10° NNW 05:42:41 11° NNW 05:42:41 11° NNW visible
02 Oct 9.7 05:05:37 10° N 05:06:40 15° NNW 05:06:40 15° NNW visible
03 Oct 9.9 04:29:45 10° N 04:30:39 15° N 04:30:39 15° N visible
04 Oct 10.4 03:54:26 10° NNE 03:54:38 11° NNE 03:54:38 11° NNE visible
04 Oct 9.8 05:34:28 10° NNW 05:34:55 12° NNW 05:34:55 12° NNW visible
05 Oct 9.8 04:58:01 10° N 04:58:54 15° N 04:58:54 15° N visible
06 Oct 10.1 04:22:18 10° NNE 04:22:53 13° NNE 04:22:53 13° NNE visible
07 Oct 9.8 05:26:40 10° NNW 05:27:10 12° NNW 05:27:10 12° NNW visible
